Location: Freistadt
(48.5112°N, 14.5013°E)
Time: 08:47:59
(UTC+02:00)

MOZHAYETS 4 - Pass Details

Date: 06 April 2023
Orbit: 657 x 675 km, 98.2° (Epoch: 03 June)

Event Time Altitude Azimuth Distance (km) Brightness Sun altitude
Exits shadow 02:36:40 25° 75° (ENE) 1,327 9.5 -31.6°
Maximum altitude 02:37:13 26° 63° (ENE) 1,306 9.6 -31.6°
Drops below altitude 10° 02:40:58 10° 8° (N) 2,095 11.0 -31.3°
Sets 02:43:29 0° 356° (N) 3,016 11.9 -31.1°
